FW9083 Weather Reports


Display with metric or nautical units.
time (UTC)temp
F
wind
direction
speed
MPH
gust
MPH
rain 1hr
in
rain 24hr
in
rain mn
in
humidity
%
barometer
mb
20260506102231 54 298 2.0 2.0 0.00 0.00 0.00 89 1023.2
20260506101727 54 281 2.0 3.0 0.00 0.00 0.00 89 1023.0
20260506101224 54 263 3.0 3.0 0.00 0.00 0.00 89 1023.0
20260506100722 54 270 3.0 3.0 0.00 0.00 0.00 89 1023.0
20260506100220 54 279 3.0 3.0 0.00 0.00 0.00 90 1022.9
20260506095718 54 278 3.0 3.0 0.00 0.00 0.00 89 1022.8
20260506095215 54 310 2.0 2.0 0.00 0.00 0.00 89 1023.0
20260506094712 54 312 2.0 2.0 0.00 0.00 0.00 89 1023.1
20260506094210 54 270 3.0 3.0 0.00 0.00 0.00 89 1022.9
20260506093708 54 322 1.0 2.0 0.00 0.00 0.00 89 1023.0
20260506093205 54 268 3.0 3.0 0.00 0.00 0.00 89 1023.1
20260506092703 54 313 1.0 2.0 0.00 0.00 0.00 89 1023.0
20260506092200 54 278 3.0 3.0 0.00 0.00 0.00 89 1023.0
20260506091658 54 308 3.0 3.0 0.00 0.00 0.00 89 1023.0
20260506091155 54 269 3.0 3.0 0.00 0.00 0.00 89 1022.7
20260506090653 54 281 2.0 2.0 0.00 0.00 0.00 89 1023.0
20260506090149 54 318 1.0 1.0 0.00 0.00 0.00 89 1023.1
20260506085646 54 273 3.0 5.0 0.00 0.00 0.00 89 1022.8
20260506085142 54 302 2.0 2.0 0.00 0.00 0.00 89 1022.8
20260506084639 54 271 3.0 3.0 0.00 0.00 0.00 89 1023.1
20260506084136 54 282 3.0 3.0 0.00 0.00 0.00 89 1022.9
20260506083632 54 269 4.0 5.0 0.00 0.00 0.00 89 1023.1
20260506083130 54 270 5.0 6.0 0.00 0.00 0.00 89 1022.9
20260506082627 54 302 4.0 5.0 0.00 0.00 0.00 89 1023.1
20260506082122 54 320 3.0 3.0 0.00 0.00 0.00 89 1023.0
20260506081621 54 316 3.0 5.0 0.00 0.00 0.00 89 1023.1
20260506081118 54 297 4.0 5.0 0.00 0.00 0.00 89 1023.0
20260506080616 54 290 1.0 2.0 0.00 0.00 0.00 89 1023.2
20260506080112 54 273 4.0 6.0 0.00 0.00 0.00 88 1023.1
20260506073056 55 320 5.0 5.0 0.00 0.00 0.00 88 1022.5
20260506072552 55 275 3.0 3.0 0.00 0.00 0.00 88 1022.6
20260506072051 55 262 3.0 3.0 0.00 0.00 0.00 88 1022.6
20260506071548 55 303 3.0 3.0 0.00 0.00 0.00 88 1022.4
20260506071045 55 289 3.0 3.0 0.00 0.00 0.00 87 1022.5
20260506070542 55 302 2.0 2.0 0.00 0.00 0.00 87 1022.6
20260506062017 55 272 4.0 5.0 0.00 0.00 0.00 87 1022.2
20260506061512 55 279 4.0 5.0 0.00 0.00 0.00 87 1021.9
20260506061010 55 259 5.0 5.0 0.00 0.00 0.00 87 1021.8
20260506060508 55 283 3.0 3.0 0.00 0.00 0.00 87 1021.9
20260506050937 55 272 4.0 5.0 0.00 0.00 0.00 87 1021.8
20260506050435 55 315 3.0 3.0 0.00 0.00 0.00 87 1021.5
20260506044925 56 271 3.0 3.0 0.00 0.00 0.00 87 1021.6
20260506044424 56 251 4.0 5.0 0.00 0.00 0.00 86 1021.5
20260506043920 56 317 4.0 5.0 0.00 0.00 0.00 86 1021.5
20260506043417 56 313 3.0 5.0 0.00 0.00 0.00 86 1021.4
20260506042915 56 274 4.0 6.0 0.00 0.00 0.00 86 1021.4
20260506042414 56 303 3.0 3.0 0.00 0.00 0.00 86 1021.2
20260506041912 56 273 3.0 5.0 0.00 0.00 0.00 86 1021.3
20260506041409 56 271 2.0 2.0 0.00 0.00 0.00 86 1021.1
20260506040906 56 276 3.0 5.0 0.00 0.00 0.00 86 1021.0
20260506040404 56 256 7.0 7.0 0.00 0.00 0.00 86 1020.9
20260506035859 56 322 2.0 3.0 0.00 0.00 0.00 85 1020.7
20260506035357 56 313 5.0 6.0 0.00 0.00 0.00 85 1020.8
20260506034854 56 305 3.0 5.0 0.00 0.00 0.00 85 1020.9
20260506034351 56 298 4.0 6.0 0.00 0.00 0.00 85 1021.0
20260506033848 56 275 5.0 6.0 0.00 0.00 0.00 85 1020.4
20260506033345 56 307 5.0 7.0 0.00 0.00 0.00 85 1020.4
20260506032842 57 289 5.0 6.0 0.00 0.00 0.00 84 1020.6
20260506032339 57 277 5.0 6.0 0.00 0.00 0.00 84 1020.4
20260506031836 57 309 5.0 6.0 0.00 0.00 0.00 84 1020.2
20260506031333 57 303 3.0 3.0 0.00 0.00 0.00 84 1020.0
20260506030831 57 326 4.0 6.0 0.00 0.00 0.00 84 1020.4
20260506030329 57 309 5.0 7.0 0.00 0.00 0.00 84 1019.8
20260506025825 57 252 6.0 7.0 0.00 0.00 0.00 84 1019.9
20260506025321 57 302 6.0 7.0 0.00 0.00 0.00 83 1019.9
20260506024819 57 272 4.0 6.0 0.00 0.00 0.00 83 1020.1
20260506024315 57 308 5.0 6.0 0.00 0.00 0.00 83 1019.8
20260506023812 57 315 5.0 6.0 0.00 0.00 0.00 83 1019.8
20260506023309 57 305 6.0 8.0 0.00 0.00 0.00 83 1019.7
20260506022805 57 309 8.0 9.0 0.00 0.00 0.00 83 1019.8
20260506022305 57 323 3.0 5.0 0.00 0.00 0.00 83 1019.8
20260506021801 57 292 6.0 7.0 0.00 0.00 0.00 83 1019.7
20260506021258 57 340 5.0 5.0 0.00 0.00 0.00 83 1019.7
20260506020754 57 258 6.0 7.0 0.00 0.00 0.00 83 1019.5
20260506020253 57 319 5.0 6.0 0.00 0.00 0.00 83 1019.7
20260506015750 57 321 7.0 8.0 0.00 0.00 0.00 82 1019.7
20260506015247 57 299 7.0 8.0 0.00 0.00 0.00 82 1019.5
20260506014744 58 303 7.0 10.0 0.00 0.00 0.00 82 1019.3
20260506014240 58 295 5.0 7.0 0.00 0.00 0.00 82 1019.5
20260506013737 58 274 7.0 9.0 0.00 0.00 0.00 82 1019.6
20260506013235 58 337 5.0 6.0 0.00 0.00 0.00 81 1019.6
20260506012731 59 289 6.0 7.0 0.00 0.00 0.00 81 1019.3
20260506012228 59 306 5.0 8.0 0.00 0.00 0.00 81 1019.4
20260506011725 59 326 5.0 6.0 0.00 0.00 0.00 80 1019.3
20260506011221 59 305 5.0 6.0 0.00 0.00 0.00 80 1019.2
20260506010720 59 308 12.0 14.0 0.00 0.00 0.00 79 1019.2
20260506010217 60 303 10.0 13.0 0.00 0.00 0.00 77 1019.1
20260506005714 60 308 5.0 7.0 0.00 0.00 0.00 77 1019.3
20260506005211 61 307 10.0 14.0 0.00 0.00 0.00 76 1019.3
20260506004706 61 268 4.0 6.0 0.00 0.00 0.00 76 1019.1
20260506004204 61 312 9.0 11.0 0.00 0.00 0.00 74 1019.1
20260506003700 61 303 7.0 9.0 0.00 0.00 0.00 74 1019.1
20260506003157 61 322 7.0 9.0 0.00 0.00 0.00 74 1018.9
20260506002653 62 272 7.0 13.0 0.00 0.00 0.00 74 1019.1
20260506002149 62 298 8.0 10.0 0.00 0.00 0.00 73 1018.8
20260506001644 63 311 6.0 8.0 0.00 0.00 0.00 73 1018.9
20260506001142 64 285 8.0 11.0 0.00 0.00 0.00 72 1018.8
20260506000639 63 278 7.0 8.0 0.00 0.00 0.00 73 1018.7
20260506000136 64 269 10.0 11.0 0.00 0.00 0.00 71 1019.0
20260505235634 63 307 9.0 10.0 0.00 0.00 0.00 73 1018.9
20260505235131 64 241 9.0 14.0 0.00 0.00 0.00 72 1018.8
20260505234628 64 274 7.0 10.0 0.00 0.00 0.00 71 1019.0
20260505234125 65 241 12.0 14.0 0.00 0.00 0.00 69 1018.8
20260505233622 65 262 9.0 13.0 0.00 0.00 0.00 71 1018.7
20260505233120 65 263 11.0 13.0 0.00 0.00 0.00 70 1018.8
20260505232617 64 315 8.0 13.0 0.00 0.00 0.00 71 1018.8
20260505232115 65 280 7.0 9.0 0.00 0.00 0.00 70 1018.9
20260505231611 65 290 11.0 15.0 0.00 0.00 0.00 69 1018.8
20260505231110 66 335 6.0 7.0 0.00 0.00 0.00 70 1018.8
20260505230608 65 264 7.0 10.0 0.00 0.00 0.00 71 1018.5
20260505225600 65 277 12.0 14.0 0.00 0.00 0.00 69 1018.7
20260505225056 65 256 11.0 13.0 0.00 0.00 0.00 71 1018.7
20260505224553 65 267 16.0 17.0 0.00 0.00 0.00 71 1018.8
20260505224051 66 336 10.0 14.0 0.00 0.00 0.00 70 1018.9
20260505223548 65 296 10.0 13.0 0.00 0.00 0.00 72 1018.8
20260505223044 66 278 9.0 11.0 0.00 0.00 0.00 69 1018.9
20260505222540 66 282 12.0 13.0 0.00 0.00 0.00 69 1019.0
20260505222037 66 274 7.0 8.0 0.00 0.00 0.00 70 1019.0
20260505221534 65 269 8.0 9.0 0.00 0.00 0.00 72 1018.9
20260505221030 67 246 9.0 10.0 0.00 0.00 0.00 69 1019.1
20260505220528 67 267 9.0 11.0 0.00 0.00 0.00 69 1018.7
20260505220025 67 265 11.0 11.0 0.00 0.00 0.00 68 1018.9
20260505215523 66 343 5.0 7.0 0.00 0.00 0.00 69 1019.1
20260505215021 66 318 8.0 10.0 0.00 0.00 0.00 69 1018.9
20260505214519 67 256 6.0 8.0 0.00 0.00 0.00 70 1018.8
20260505214015 66 337 10.0 13.0 0.00 0.00 0.00 71 1018.9
20260505213513 66 262 10.0 11.0 0.00 0.00 0.00 71 1019.2
20260505213009 65 250 5.0 9.0 0.00 0.00 0.00 72 1019.0
20260505212506 65 310 6.0 7.0 0.00 0.00 0.00 71 1019.1
20260505212003 65 244 8.0 8.0 0.00 0.00 0.00 72 1019.0
20260505211500 66 272 7.0 8.0 0.00 0.00 0.00 69 1019.1
20260505210956 66 331 3.0 3.0 0.00 0.00 0.00 71 1019.0
20260505210453 65 262 5.0 6.0 0.00 0.00 0.00 68 1019.0
20260505205950 66 315 4.0 5.0 0.00 0.00 0.00 69 1019.1
20260505205449 65 3 3.0 3.0 0.00 0.00 0.00 68 1019.1
20260505204945 64 27 1.0 1.0 0.00 0.00 0.00 69 1019.2
20260505204443 64 292 2.0 2.0 0.00 0.00 0.00 72 1018.9
20260505203940 64 262 4.0 5.0 0.00 0.00 0.00 73 1019.2
20260505203437 63 276 2.0 3.0 0.00 0.00 0.00 72 1019.4
20260505202933 63 312 1.0 2.0 0.00 0.00 0.00 71 1019.4
20260505202429 64 289 4.0 5.0 0.00 0.00 0.00 71 1019.3
20260505201926 63 1 4.0 5.0 0.00 0.00 0.00 70 1019.3
20260505201423 62 264 5.0 6.0 0.00 0.00 0.00 73 1019.4
20260505200921 62 236 3.0 3.0 0.00 0.00 0.00 75 1019.6
20260505200418 62 276 5.0 7.0 0.00 0.00 0.00 74 1019.4
20260505195913 63 251 6.0 7.0 0.00 0.00 0.00 73 1019.5
20260505195411 63 295 2.0 2.0 0.00 0.00 0.00 73 1019.5
20260505194908 61 359 2.0 2.0 0.00 0.00 0.00 75 1019.4
20260505194406 61 324 2.0 2.0 0.00 0.00 0.00 77 1019.4
20260505193905 61 274 4.0 5.0 0.00 0.00 0.00 75 1019.4
20260505193404 61 302 0.0 0.0 0.00 0.00 0.00 76 1019.8
20260505192901 62 314 4.0 5.0 0.00 0.00 0.00 77 1019.6
20260505192359 61 294 1.0 2.0 0.00 0.00 0.00 77 1019.4
20260505191856 61 286 4.0 5.0 0.00 0.00 0.00 77 1019.6
20260505191355 61 326 3.0 3.0 0.00 0.00 0.00 78 1019.7
20260505190851 60 302 2.0 3.0 0.00 0.00 0.00 78 1019.5
20260505190347 60 309 3.0 3.0 0.00 0.00 0.00 79 1019.6
20260505185842 59 305 3.0 5.0 0.00 0.00 0.00 80 1019.4
20260505185339 60 316 3.0 5.0 0.00 0.00 0.00 79 1019.6
20260505184835 59 294 6.0 7.0 0.00 0.00 0.00 79 1019.4
20260505184332 59 290 3.0 5.0 0.00 0.00 0.00 80 1019.5
20260505183829 59 274 3.0 3.0 0.00 0.00 0.00 81 1019.5
20260505175713 59 256 7.0 9.0 0.00 0.00 0.00 80 1019.3
20260505175209 59 256 7.0 9.0 0.00 0.00 0.00 80 1019.3
20260505174706 58 303 5.0 7.0 0.00 0.00 0.00 80 1019.1
20260505174203 58 282 7.0 10.0 0.00 0.00 0.00 82 1019.3
20260505173659 58 255 5.0 6.0 0.00 0.00 0.00 82 1019.3
20260505173155 58 279 4.0 6.0 0.00 0.00 0.00 81 1019.0
20260505172653 58 256 6.0 7.0 0.00 0.00 0.00 81 1019.2
20260505172150 58 271 5.0 7.0 0.00 0.00 0.00 80 1019.0
20260505171649 58 247 5.0 5.0 0.00 0.00 0.00 81 1019.2
20260505171147 57 276 6.0 6.0 0.00 0.00 0.00 83 1019.3
20260505170644 57 253 6.0 7.0 0.00 0.00 0.00 83 1019.1
20260505170140 57 280 5.0 7.0 0.00 0.00 0.00 84 1019.3
20260505165635 57 285 7.0 8.0 0.00 0.00 0.00 84 1019.2
20260505165131 57 265 5.0 6.0 0.00 0.00 0.00 84 1019.2
20260505164626 57 318 2.0 2.0 0.00 0.00 0.00 85 1019.1
20260505164124 57 271 4.0 5.0 0.00 0.00 0.00 85 1019.0
20260505163623 57 256 5.0 6.0 0.00 0.00 0.00 85 1019.1
20260505163120 57 305 3.0 3.0 0.00 0.00 0.00 85 1019.2
20260505162617 57 312 5.0 5.0 0.00 0.00 0.00 84 1019.0
20260505162115 57 249 5.0 6.0 0.00 0.00 0.00 85 1018.9
20260505161612 57 273 5.0 6.0 0.00 0.00 0.00 86 1018.9
20260505161109 56 266 5.0 6.0 0.00 0.00 0.00 87 1019.1
20260505160607 56 281 7.0 8.0 0.00 0.00 0.00 86 1018.9
20260505160104 56 270 5.0 5.0 0.00 0.00 0.00 86 1018.9
20260505153044 55 289 5.0 8.0 0.00 0.00 0.00 88 1018.6
20260505152540 55 283 4.0 5.0 0.00 0.00 0.00 89 1018.9
20260505152036 55 275 5.0 7.0 0.00 0.00 0.00 89 1019.0
20260505151531 55 291 4.0 5.0 0.00 0.00 0.00 89 1019.0
20260505151029 55 277 5.0 6.0 0.00 0.00 0.00 90 1018.9
20260505150525 55 269 5.0 6.0 0.00 0.00 0.00 90 1018.8
20260505140450 53 317 2.0 2.0 0.00 0.00 0.00 93 1018.4
20260505124903 53 319 1.0 1.0 0.00 0.00 0.00 93 1018.2
20260505124401 53 323 1.0 1.0 0.00 0.00 0.00 93 1018.2
20260505123856 53 357 1.0 1.0 0.00 0.00 0.00 93 1018.2
20260505123353 53 348 0.0 0.0 0.00 0.00 0.00 93 1018.2
20260505122849 53 312 2.0 2.0 0.00 0.00 0.00 93 1018.0
20260505122347 53 317 1.0 1.0 0.00 0.00 0.00 93 1018.2
20260505121843 53 3 0.0 0.0 0.00 0.00 0.00 93 1018.1
20260505121340 53 357 1.0 1.0 0.00 0.00 0.00 93 1018.2
20260505120836 53 4 1.0 1.0 0.00 0.00 0.00 93 1017.8
20260505120332 53 325 1.0 1.0 0.00 0.00 0.00 93 1018.2
20260505115831 53 323 2.0 2.0 0.00 0.00 0.00 93 1018.1
20260505115328 53 325 1.0 1.0 0.00 0.00 0.00 93 1018.1
20260505114826 53 333 0.0 0.0 0.00 0.00 0.00 93 1018.0
20260505114323 53 323 1.0 1.0 0.00 0.00 0.00 93 1018.2
20260505113819 53 327 1.0 1.0 0.00 0.00 0.00 92 1018.3
20260505113315 53 316 1.0 1.0 0.00 0.00 0.00 92 1018.0
20260505112811 53 333 0.0 1.0 0.00 0.00 0.00 92 1018.1
20260505112309 53 319 1.0 1.0 0.00 0.00 0.00 92 1018.1
20260505111804 53 346 2.0 2.0 0.00 0.00 0.00 92 1018.4
20260505111300 53 358 1.0 1.0 0.00 0.00 0.00 92 1018.1
20260505110756 53 352 3.0 3.0 0.00 0.00 0.00 92 1018.3
20260505110254 53 355 2.0 2.0 0.00 0.00 0.00 92 1018.3